User: anonymous   Login
Location: Unspecified
(0.0000°N, 0.0000°E)
Time: 01:04:44
(UTC+00:00)
Language:

SDS-4 - Orbit

View from above orbital plane
View from above orbital plane
View from above satellite
View from above satellite

Ground track
Ground track

The orbit is defined by the following mean orbital elements,

1 38339U          26145.60428560 +.00000000 +00000-0 +86789-4 0 00000
2 38339  98.1350 241.3836 0007269  21.1152 339.0356 14.75776436    06
Epoch (UTC): 25 May 2026 14:30:10
Eccentricity: 0.0007269
inclination: 98.1350°
perigee height: 638 km
apogee height: 648 km
right ascension of ascending node: 241.3836°
argument of perigee: 21.1152°
revolutions per day: 14.75776436
mean anomaly at epoch: 339.0356°

The dashed part of the orbit path shows where the satellite is in the earth's shadow,  

DLR